MICROORBITER-1

Last updated on Wed Aug 21 2024 00:02:07 GMT+0000 (Coordinated Universal Time)

1 59483U 98067WF 24233.31864497 .12746704 12558-4 55508-3 0 9997 2 59483 51.6099 338.9798 0007877 306.1323 53.8975 16.42963710 20621

Satellite not in orbit

MICROORBITER-1